SB KEPS @ AMSAT $ORB08052.O Orbital Elements 08052.OSCAR
HR AMSAT ORBITAL ELEMENTS FOR OSCAR SATELLITES FROM WA5QGD FORT WORTH,TX February 21, 2008 Send Subscribe/unsubscribe to KEPS at http://www.amsat.org/mailman/listinfo/keps BID: ORB08052.O TO ALL RADIO AMATEURS BT
Satellite: AO-07 Catalog number: 07530 Epoch time: 08052.77619259 Element set: 108 Inclination: 101.4829 deg RA of node: 088.1076 deg Eccentricity: 0.0012155 Arg of perigee: 129.2580 deg Mean anomaly: 230.9568 deg Mean motion: 12.53573435 rev/day Decay rate: -2.7e-07 rev/day^2 Epoch rev: 52239 Checksum: 301
Satellite: AO-10 Catalog number: 14129 Epoch time: 08051.72407264 Element set: 472 Inclination: 025.9259 deg RA of node: 229.3821 deg Eccentricity: 0.6027879 Arg of perigee: 100.4295 deg Mean anomaly: 328.7203 deg Mean motion: 02.05867954 rev/day Decay rate: 1.20e-06 rev/day^2 Epoch rev: 18568 Checksum: 308
Satellite: UO-11 Catalog number: 14781 Epoch time: 08051.78838550 Element set: 0602 Inclination: 098.1690 deg RA of node: 083.9846 deg Eccentricity: 0.0010178 Arg of perigee: 091.8246 deg Mean anomaly: 268.4145 deg Mean motion: 14.79618913 rev/day Decay rate: 1.79e-06 rev/day^2 Epoch rev: 28649 Checksum: 342
Satellite: RS-15 Catalog number: 23439 Epoch time: 08051.94062879 Element set: 0157 Inclination: 064.8226 deg RA of node: 324.6477 deg Eccentricity: 0.0150468 Arg of perigee: 145.0216 deg Mean anomaly: 216.0703 deg Mean motion: 11.27551493 rev/day Decay rate: -3.9e-07 rev/day^2 Epoch rev: 54174 Checksum: 305
Satellite: FO-29 Catalog number: 24278 Epoch time: 08052.86877160 Element set: 707 Inclination: 098.5843 deg RA of node: 344.3834 deg Eccentricity: 0.0351002 Arg of perigee: 156.5340 deg Mean anomaly: 205.2261 deg Mean motion: 13.52935292 rev/day Decay rate: -2.6e-07 rev/day^2 Epoch rev: 56866 Checksum: 317
Satellite: SO-33 Catalog number: 25509 Epoch time: 08051.90073745 Element set: 0137 Inclination: 031.4284 deg RA of node: 259.5154 deg Eccentricity: 0.0354582 Arg of perigee: 081.8324 deg Mean anomaly: 282.2349 deg Mean motion: 14.28196598 rev/day Decay rate: 1.24e-06 rev/day^2 Epoch rev: 48683 Checksum: 322
Satellite: AO-40 Catalog number: 26609 Epoch time: 08050.17454471 Element set: 0012 Inclination: 007.4126 deg RA of node: 096.9548 deg Eccentricity: 0.7924077 Arg of perigee: 053.1927 deg Mean anomaly: 355.7323 deg Mean motion: 01.25583023 rev/day Decay rate: -4.51e-06 rev/day^2 Epoch rev: 03354 Checksum: 293
Satellite: VO-52 Catalog number: 28650 Epoch time: 08052.62490577 Element set: 862 Inclination: 097.8027 deg RA of node: 122.3727 deg Eccentricity: 0.0027673 Arg of perigee: 158.6228 deg Mean anomaly: 201.6185 deg Mean motion: 14.81423980 rev/day Decay rate: 3.33e-06 rev/day^2 Epoch rev: 15134 Checksum: 309
Satellite: PO-63 Catalog number: 29712 Epoch time: 08052.74280878 Element set: 206 Inclination: 097.8904 deg RA of node: 113.0555 deg Eccentricity: 0.0015115 Arg of perigee: 042.9505 deg Mean anomaly: 317.2875 deg Mean motion: 14.80029831 rev/day Decay rate: 5.18e-06 rev/day^2 Epoch rev: 6024 Checksum: 297
/EX SB KEPS @ AMSAT $ORB08052.D Orbital Elements 08052.MICROS
HR AMSAT ORBITAL ELEMENTS FOR THE MICROSATS FROM WA5QGD FORT WORTH,TX February 21, 2008 Send Subscribe/unsubscribe to KEPS at http://www.amsat.org/mailman/listinfo/keps BID: ORB08052.D TO ALL RADIO AMATEURS BT
Satellite: AO-16 Catalog number: 20439 Epoch time: 08052.64579672 Element set: 257 Inclination: 098.2195 deg RA of node: 038.7298 deg Eccentricity: 0.0011085 Arg of perigee: 158.6827 deg Mean anomaly: 201.4798 deg Mean motion: 14.31784745 rev/day Decay rate: 9.0e-08 rev/day^2 Epoch rev: 94424 Checksum: 342
Satellite: LO-19 Catalog number: 20442 Epoch time: 08051.66439206 Element set: 0182 Inclination: 098.1937 deg RA of node: 046.6683 deg Eccentricity: 0.0012097 Arg of perigee: 160.1837 deg Mean anomaly: 199.9824 deg Mean motion: 14.32023473 rev/day Decay rate: -4.9e-07 rev/day^2 Epoch rev: 94425 Checksum: 318
Satellite: AO-27 Catalog number: 22825 Epoch time: 08051.86794556 Element set: 903 Inclination: 098.3682 deg RA of node: 016.3799 deg Eccentricity: 0.0007546 Arg of perigee: 245.9919 deg Mean anomaly: 114.0485 deg Mean motion: 14.29230872 rev/day Decay rate: -2.5e-07 rev/day^2 Epoch rev: 75101 Checksum: 330
Satellite: IO-26 Catalog number: 22826 Epoch time: 08051.80235427 Element set: 0606 Inclination: 098.3612 deg RA of node: 017.2814 deg Eccentricity: 0.0008076 Arg of perigee: 242.9801 deg Mean anomaly: 117.0551 deg Mean motion: 14.29478612 rev/day Decay rate: -1.0e-08 rev/day^2 Epoch rev: 75109 Checksum: 284
Satellite: PO-28 Catalog number: 22829 Epoch time: 08051.84639924 Element set: 0880 Inclination: 098.3503 deg RA of node: 018.4486 deg Eccentricity: 0.0009195 Arg of perigee: 212.6456 deg Mean anomaly: 147.4162 deg Mean motion: 14.30181059 rev/day Decay rate: 4.0e-07 rev/day^2 Epoch rev: 75135 Checksum: 310
Satellite: GO-32 Catalog number: 25397 Epoch time: 08052.75215706 Element set: 531 Inclination: 098.3806 deg RA of node: 093.5817 deg Eccentricity: 0.0001122 Arg of perigee: 171.6046 deg Mean anomaly: 188.5141 deg Mean motion: 14.23138211 rev/day Decay rate: -1.23e-06 rev/day^2 Epoch rev: 49965 Checksum: 290
Satellite: MO-46 Catalog number: 26548 Epoch time: 08052.66001480 Element set: 29 Inclination: 064.5576 deg RA of node: 130.8375 deg Eccentricity: 0.0016166 Arg of perigee: 339.8298 deg Mean anomaly: 020.2166 deg Mean motion: 14.83228711 rev/day Decay rate: 2.2e-07 rev/day^2 Epoch rev: 40053 Checksum: 289
Satellite: NO-44 Catalog number: 26931 Epoch time: 08052.72494511 Element set: 811 Inclination: 067.0504 deg RA of node: 224.6742 deg Eccentricity: 0.0004784 Arg of perigee: 270.4756 deg Mean anomaly: 089.5774 deg Mean motion: 14.29511562 rev/day Decay rate: -2.24e-06 rev/day^2 Epoch rev: 33376 Checksum: 307
Satellite: SO-50 Catalog number: 27607 Epoch time: 08052.44038853 Element set: 534 Inclination: 064.5590 deg RA of node: 048.1859 deg Eccentricity: 0.0080589 Arg of perigee: 302.7717 deg Mean anomaly: 056.5628 deg Mean motion: 14.71329203 rev/day Decay rate: 1.24e-06 rev/day^2 Epoch rev: 27779 Checksum: 323
Satellite: CO-55 Catalog number: 27844 Epoch time: 08052.72793794 Element set: 241 Inclination: 098.7194 deg RA of node: 062.5998 deg Eccentricity: 0.0010871 Arg of perigee: 091.8709 deg Mean anomaly: 268.3699 deg Mean motion: 14.20561365 rev/day Decay rate: 4.7e-07 rev/day^2 Epoch rev: 24090 Checksum: 346
Satellite: CO-57 Catalog number: 27848 Epoch time: 08051.58336150 Element set: 194 Inclination: 098.7192 deg RA of node: 060.5918 deg Eccentricity: 0.0010551 Arg of perigee: 097.5354 deg Mean anomaly: 262.7012 deg Mean motion: 14.20372948 rev/day Decay rate: 9.0e-08 rev/day^2 Epoch rev: 24071 Checksum: 305
Satellite: AO-51 Catalog number: 28375 Epoch time: 08052.64069054 Element set: 36 Inclination: 098.0840 deg RA of node: 083.6975 deg Eccentricity: 0.0084004 Arg of perigee: 145.6697 deg Mean anomaly: 214.9966 deg Mean motion: 14.40597254 rev/day Decay rate: 5.0e-08 rev/day^2 Epoch rev: 19162 Checksum: 324
Satellite: CO-56 Catalog number: 28941 Epoch time: 08051.93488420 Element set: 0871 Inclination: 098.1048 deg RA of node: 147.2675 deg Eccentricity: 0.0188798 Arg of perigee: 105.4568 deg Mean anomaly: 256.7598 deg Mean motion: 15.50644325 rev/day Decay rate: 2.7763e-04 rev/day^2 Epoch rev: 11183 Checksum: 359
Satellite: NO-61 Catalog number: 29664 Epoch time: 07359.16654419 Element set: 738 Inclination: 051.6179 deg RA of node: 150.0690 deg Eccentricity: 0.0003189 Arg of perigee: 248.8461 deg Mean anomaly: 111.8136 deg Mean motion: 16.51627846 rev/day Decay rate: 1.4620719e-01 rev/day^2 Epoch rev: 5877 Checksum: 345
Satellite: CP4 Catalog number: 31122 Epoch time: 08051.85057192 Element set: 267 Inclination: 098.0563 deg RA of node: 121.7330 deg Eccentricity: 0.0084736 Arg of perigee: 334.0503 deg Mean anomaly: 025.6412 deg Mean motion: 14.55088963 rev/day Decay rate: 5.49e-06 rev/day^2 Epoch rev: 4501 Checksum: 279
Satellite: CP3 Catalog number: 31128 Epoch time: 08052.66313517 Element set: 263 Inclination: 098.0543 deg RA of node: 120.9616 deg Eccentricity: 0.0102163 Arg of perigee: 335.7281 deg Mean anomaly: 023.9149 deg Mean motion: 14.51915229 rev/day Decay rate: -4.8e-07 rev/day^2 Epoch rev: 4502 Checksum: 273
Satellite: LIBERT Catalog number: 31129 Epoch time: 08052.78216199 Element set: 767 Inclination: 098.0542 deg RA of node: 121.1064 deg Eccentricity: 0.0102435 Arg of perigee: 335.3076 deg Mean anomaly: 024.3203 deg Mean motion: 14.52005060 rev/day Decay rate: 3.37e-06 rev/day^2 Epoch rev: 4502 Checksum: 249
/EX SB KEPS @ AMSAT $ORB08052.W Orbital Elements 08052.WEATHER
HR AMSAT ORBITAL ELEMENTS FOR WEATHER SATELLITES FROM WA5QGD FORT WORTH,TX February 21, 2008 Send Subscribe/unsubscribe to KEPS at http://www.amsat.org/mailman/listinfo/keps BID: ORB08052.W TO ALL RADIO AMATEURS BT
Satellite: NOAA-10 Catalog number: 16969 Epoch time: 08051.66816396 Element set: 0015 Inclination: 098.7324 deg RA of node: 073.8182 deg Eccentricity: 0.0012556 Arg of perigee: 160.2634 deg Mean anomaly: 199.9045 deg Mean motion: 14.27350928 rev/day Decay rate: 2.0e-07 rev/day^2 Epoch rev: 11467 Checksum: 310
Satellite: NOAA-11 Catalog number: 19531 Epoch time: 08051.84740094 Element set: 0049 Inclination: 098.7987 deg RA of node: 142.8138 deg Eccentricity: 0.0012178 Arg of perigee: 045.5405 deg Mean anomaly: 314.6748 deg Mean motion: 14.14865768 rev/day Decay rate: -5.3e-07 rev/day^2 Epoch rev: 00131 Checksum: 309
Satellite: NOAA-12 Catalog number: 21263 Epoch time: 08051.84564103 Element set: 0556 Inclination: 098.7652 deg RA of node: 053.8150 deg Eccentricity: 0.0013422 Arg of perigee: 105.2353 deg Mean anomaly: 255.0290 deg Mean motion: 14.25516938 rev/day Decay rate: -5.2e-07 rev/day^2 Epoch rev: 87167 Checksum: 283
